User: anonymous   Login
Location: Byszew
(52.1813°N, 19.2693°E)
Time: 11:54:22
(UTC+00:00)
Language:

METEOR 1-16 DEB - Orbit

View from above orbital plane
View from above orbital plane
View from above satellite
View from above satellite

Ground track
Ground track

The orbit data is extracted from the following two-line orbital elements,

1 42999U 74011C   22341.33229332  .00002115  00000-0  98813-3 0  9996
2 42999  81.2311 205.5610 0034444  94.6377 265.8735 14.19732100330566
Epoch (UTC): 07 December 2022 07:58:30
Eccentricity: 0.0034444
inclination: 81.2311°
perigee height: 801 km
apogee height: 851 km
right ascension of ascending node: 205.5610°
argument of perigee: 94.6377°
revolutions per day: 14.19732100
mean anomaly at epoch: 265.8735°
orbit number at epoch: 33056

The dashed part of the orbit path shows where the satellite is in the earth's shadow,  

DLR